Weather History for Kalaeloa, HI

Change the Weather History Date:

Sunday, November 11, 2012

  Actual Average (PHNL) Record (PHNL)
Temperature  
Mean Temperature 76 °F 78 °F  
Max Temperature 84 °F 84 °F 89 °F (1987)
Min Temperature 68 °F 72 °F 63 °F (1993)
Degree Days  
Heating Degree Days 0 0  
Month to date heating degree days 0  
Since 1 July heating degree days 0  
Cooling Degree Days 11 13  
Month to date cooling degree days 149  
Year to date cooling degree days 4095  
Growing Degree Days 26 (Base 50)    
Moisture  
Dew Point 62 °F    
Average Humidity 62    
Maximum Humidity 78    
Minimum Humidity 44    
Precipitation  
Precipitation 0.00 in 0.08 in 1.99 in (1986)
Month to date precipitation 0.93  
Year to date precipitation 12.37  
Snow  
Snow 0.00 in - - ()
Month to date snowfall  
Since 1 July snowfall  
Since 1 September snowfall  
Snow Depth -    
Sea Level Pressure  
Sea Level Pressure 30.06 in    
Wind  
Wind Speed 5 mph (ENE)    
Max Wind Speed 10 mph    
Max Gust Speed 23 mph    
Visibility 10 miles    
Events      
T = Trace of Precipitation, MM = Missing Value Source: NWS Daily Summary

Daily Weather History Graph

Daily Weather History Graph

Search for Another Location

Airport:

Trip Planner

Search our weather history database for the weather conditions in past years. The results will help you decide how hot, cold, wet, or windy it might be!

Date:

Astronomy

Nov. 11, 2012 Rise Set
Actual Time 6:41 AM HST 5:51 PM HST
Civil Twilight 6:17 AM HST 6:14 PM HST
Nautical Twilight 5:51 AM HST 6:41 PM HST
Astronomical Twilight 5:24 AM HST 7:07 PM HST
Moon 4:22 AM HST (11/11) 4:12 PM HST (11/11)
Length of Visible Light 11h 56m
Length of Day
11h 10m
Waning Crescent, 6% of the Moon is Illuminated
Nov 11
Waning Crescent
Nov 13
New
Nov 20
First Quarter
Nov 28
Full
Dec 6
Last Quarter

Hourly Weather History & Observations

Time (HST) Temp. Heat Index Dew Point Humidity Pressure Visibility Wind Dir Wind Speed Gust Speed Precip Events Conditions
12:53 AM 73.0 °F - 61.0 °F 66% 30.06 in 10.0 mi East 4.6 mph - N/A   Scattered Clouds
1:53 AM 72.0 °F - 62.1 °F 71% 30.06 in 10.0 mi Calm Calm - N/A   Clear
2:53 AM 72.0 °F - 61.0 °F 68% 30.04 in 10.0 mi ENE 3.5 mph - N/A   Clear
3:53 AM 71.1 °F - 62.1 °F 73% 30.04 in 10.0 mi Calm Calm - N/A   Clear
4:53 AM 70.0 °F - 62.1 °F 76% 30.04 in 10.0 mi ENE 3.5 mph - N/A   Clear
5:53 AM 69.1 °F - 61.0 °F 75% 30.06 in 10.0 mi Calm Calm - N/A   Clear
6:53 AM 68.0 °F - 61.0 °F 78% 30.07 in 10.0 mi Variable 3.5 mph - N/A   Clear
7:53 AM 75.0 °F - 63.0 °F 66% 30.08 in 10.0 mi Variable 4.6 mph - N/A   Clear
8:53 AM 79.0 °F - 62.1 °F 56% 30.09 in 10.0 mi ENE 8.1 mph 17.3 mph N/A   Clear
9:53 AM 81.0 °F 81.3 °F 59.0 °F 47% 30.09 in 10.0 mi East 9.2 mph 23.0 mph N/A   Clear
10:53 AM 84.0 °F 84.4 °F 61.0 °F 46% 30.08 in 10.0 mi East 9.2 mph - N/A   Partly Cloudy
11:53 AM 82.9 °F 84.0 °F 63.0 °F 51% 30.06 in 10.0 mi Variable 6.9 mph - N/A   Scattered Clouds
12:53 PM 84.0 °F 84.0 °F 60.1 °F 44% 30.04 in 10.0 mi East 10.4 mph 19.6 mph N/A   Scattered Clouds
1:53 PM 84.0 °F 84.0 °F 60.1 °F 44% 30.02 in 10.0 mi ESE 10.4 mph 21.9 mph N/A   Partly Cloudy
2:53 PM 82.0 °F 82.4 °F 60.1 °F 47% 30.01 in 10.0 mi NE 9.2 mph - N/A   Scattered Clouds
3:53 PM 81.0 °F 81.6 °F 60.1 °F 49% 30.01 in 10.0 mi Variable 6.9 mph - N/A   Clear
4:53 PM 80.1 °F 81.2 °F 62.1 °F 54% 30.02 in 10.0 mi Variable 6.9 mph - N/A   Clear
5:53 PM 77.0 °F - 62.1 °F 60% 30.04 in 10.0 mi ENE 4.6 mph - N/A   Clear
6:53 PM 75.0 °F - 62.1 °F 64% 30.06 in 10.0 mi Variable 4.6 mph - N/A   Clear
7:53 PM 73.9 °F - 63.0 °F 68% 30.09 in 10.0 mi ENE 4.6 mph - N/A   Clear
8:53 PM 73.9 °F - 63.0 °F 68% 30.10 in 10.0 mi ENE 4.6 mph - N/A   Clear
9:53 PM 73.0 °F - 63.0 °F 71% 30.10 in 10.0 mi Variable 5.8 mph - N/A   Clear
10:53 PM 73.0 °F - 64.0 °F 73% 30.12 in 10.0 mi Variable 4.6 mph - N/A   Clear
11:53 PM 72.0 °F - 63.0 °F 73% 30.12 in 10.0 mi Calm Calm - N/A   Clear